User: anonymous   Login
Location: ??????
(42.0089°N, 44.3281°E)
Time: 23:20:47
(UTC+00:00)
Language:

Meteor 2-11 Rocket - Orbit

View from above orbital plane
View from above orbital plane
View from above satellite
View from above satellite

Ground track
Ground track

The orbit data is extracted from the following two-line orbital elements,

1 15100U 84072B   22020.54997046  .00000033  00000-0  16179-4 0  9992
2 15100  82.5284 246.3235 0011111 319.8930  40.1409 13.84452855896917
Epoch (UTC): 20 January 2022 13:11:57
Eccentricity: 0.0011111
inclination: 82.5284°
perigee height: 940 km
apogee height: 956 km
right ascension of ascending node: 246.3235°
argument of perigee: 319.8930°
revolutions per day: 13.84452855
mean anomaly at epoch: 40.1409°
orbit number at epoch: 89691

The dashed part of the orbit path shows where the satellite is in the earth's shadow,  

DLR